Date,Time,Wetness (Wet Dry or Ice),Wind Speed (m/s),Temperature (C),Humidity (%),Pressure (mb),Radiation (W/m^2)
2024-03-08,00:00:00,WET,5.03,0.77,100.0,772.00,0.0
2024-03-08,00:05:00,WET,6.25,0.70,100.0,772.00,0.0
2024-03-08,00:10:00,WET,4.57,0.63,100.0,772.00,0.0
2024-03-08,00:15:00,WET,4.45,0.40,100.0,772.00,0.0
2024-03-08,00:20:00,WET,5.73,0.27,100.0,772.00,0.0
2024-03-08,00:25:00,WET,5.00,0.50,100.0,772.00,0.0
2024-03-08,00:30:00,WET,4.83,0.27,100.0,772.00,0.0
2024-03-08,00:35:00,WET,5.10,0.25,100.0,772.00,0.0
2024-03-08,00:40:00,WET,5.93,0.00,100.0,772.00,0.0
2024-03-08,00:45:00,ICE,5.05,-0.10,100.0,772.00,0.0
2024-03-08,00:50:00,ICE,4.70,-0.03,100.0,772.00,0.0
2024-03-08,00:55:00,ICE,4.80,-0.05,100.0,772.00,0.0
2024-03-08,01:00:00,WET,4.80,0.07,100.0,772.00,0.3
2024-03-08,01:05:00,WET,6.45,0.00,100.0,772.00,0.0
2024-03-08,01:10:00,WET,6.67,0.13,100.0,772.00,0.0
2024-03-08,01:15:00,WET,4.30,0.20,100.0,772.00,0.0
2024-03-08,01:20:00,WET,5.40,0.33,100.0,772.00,0.0
2024-03-08,01:25:00,WET,5.45,0.20,100.0,772.00,0.5
2024-03-08,01:30:00,WET,5.17,0.30,100.0,772.00,0.0
2024-03-08,01:35:00,WET,5.20,0.15,100.0,772.00,0.0
2024-03-08,01:40:00,ICE,4.23,-0.13,100.0,772.00,0.0
2024-03-08,01:45:00,ICE,5.25,-0.10,100.0,771.00,0.0
2024-03-08,01:50:00,ICE,4.43,-0.07,100.0,771.33,0.0
2024-03-08,01:55:00,WET,4.25,0.00,100.0,771.00,0.0
2024-03-08,02:00:00,ICE,3.77,-0.53,100.0,771.00,0.0
2024-03-08,02:05:00,ICE,6.40,-0.70,100.0,771.00,0.0
2024-03-08,02:10:00,ICE,4.63,-0.57,100.0,771.00,0.3
2024-03-08,02:15:00,ICE,5.10,-0.50,100.0,771.00,0.0
2024-03-08,02:20:00,ICE,5.90,-0.83,100.0,771.00,0.0
2024-03-08,02:25:00,ICE,5.30,-0.85,100.0,771.00,0.0
2024-03-08,02:30:00,ICE,5.30,-0.80,100.0,771.00,0.0
2024-03-08,02:35:00,ICE,5.85,-1.10,100.0,771.00,0.0
2024-03-08,02:40:00,ICE,5.43,-1.30,100.0,771.00,0.0
2024-03-08,02:45:00,ICE,4.50,-1.15,100.0,771.00,0.0
2024-03-08,02:50:00,ICE,3.60,-1.13,100.0,771.00,0.0
2024-03-08,02:55:00,ICE,4.65,-1.20,100.0,771.00,0.0
2024-03-08,03:00:00,ICE,5.00,-1.70,100.0,771.00,0.0
2024-03-08,03:05:00,ICE,6.10,-1.65,100.0,771.00,0.0
2024-03-08,03:10:00,ICE,4.53,-1.77,100.0,771.00,0.0
2024-03-08,03:15:00,ICE,5.30,-1.45,100.0,771.00,0.0
2024-03-08,03:20:00,ICE,6.93,-1.50,100.0,771.00,0.0
2024-03-08,03:25:00,DRY,7.00,-1.40,100.0,770.50,0.0
2024-03-08,03:30:00,DRY,7.17,-1.17,94.0,771.00,0.0
2024-03-08,03:35:00,DRY,5.80,-0.80,86.5,771.00,0.0
2024-03-08,03:40:00,DRY,4.80,-0.63,83.3,770.33,0.0
2024-03-08,03:45:00,DRY,5.75,-0.55,83.5,771.00,0.0
2024-03-08,03:50:00,DRY,3.90,-0.63,80.7,771.00,0.0
2024-03-08,03:55:00,DRY,4.35,-0.70,83.0,771.00,0.0
2024-03-08,04:00:00,DRY,4.80,-0.67,78.7,771.00,0.0
2024-03-08,04:05:00,DRY,3.75,-0.75,81.0,771.00,0.0
2024-03-08,04:10:00,DRY,6.20,-0.97,77.7,770.00,0.0
2024-03-08,04:15:00,DRY,5.90,-0.95,80.5,770.00,0.0
2024-03-08,04:20:00,DRY,3.53,-0.80,76.0,770.00,0.0
2024-03-08,04:25:00,DRY,4.40,-0.80,78.0,770.00,0.0
2024-03-08,04:30:00,DRY,5.60,-0.60,75.3,770.00,0.0
2024-03-08,04:35:00,DRY,4.25,-0.75,76.0,770.00,0.0
2024-03-08,04:40:00,DRY,4.73,-0.83,75.7,770.00,0.0
2024-03-08,04:45:00,DRY,2.70,-0.80,73.0,770.00,0.0
2024-03-08,04:50:00,DRY,3.53,-0.67,73.7,770.00,0.0
2024-03-08,04:55:00,DRY,4.15,-1.25,79.5,770.00,0.0
2024-03-08,05:00:00,DRY,5.17,-0.57,72.0,770.00,0.0
2024-03-08,05:05:00,DRY,3.25,-1.40,92.5,770.00,0.0
2024-03-08,05:10:00,DRY,4.83,-1.40,87.0,770.00,0.0
2024-03-08,05:15:00,DRY,5.65,-1.30,86.5,770.00,0.0
2024-03-08,05:20:00,ICE,5.10,-1.63,95.7,770.00,0.0
2024-03-08,05:25:00,ICE,5.90,-1.80,100.0,770.00,0.0
2024-03-08,05:30:00,ICE,5.80,-1.53,100.0,770.00,0.0
2024-03-08,05:35:00,ICE,5.30,-1.55,100.0,770.00,0.0
2024-03-08,05:40:00,ICE,6.30,-1.50,100.0,770.00,0.0
2024-03-08,05:45:00,ICE,5.50,-1.60,100.0,770.00,0.0
2024-03-08,05:50:00,ICE,5.67,-1.57,100.0,770.00,0.0
2024-03-08,05:55:00,ICE,5.55,-1.55,100.0,770.00,0.0
2024-03-08,06:00:00,ICE,5.87,-1.87,100.0,770.00,0.0
2024-03-08,06:05:00,ICE,4.60,-1.70,100.0,770.00,0.0
2024-03-08,06:10:00,ICE,5.13,-1.60,100.0,770.00,0.0
2024-03-08,06:15:00,ICE,6.15,-1.60,100.0,770.00,0.0
2024-03-08,06:20:00,ICE,4.67,-1.43,100.0,770.00,0.0
2024-03-08,06:25:00,ICE,5.20,-1.25,100.0,770.00,0.0
2024-03-08,06:30:00,DRY,4.93,-1.80,92.7,770.00,0.0
2024-03-08,06:35:00,DRY,5.25,-1.55,92.5,770.00,0.0
2024-03-08,06:40:00,ICE,5.37,-1.50,99.7,770.00,0.0
2024-03-08,06:45:00,ICE,6.25,-1.40,100.0,770.00,0.0
2024-03-08,06:50:00,DRY,6.33,-1.63,98.3,770.00,0.0
2024-03-08,06:55:00,DRY,5.95,-1.60,93.0,770.00,0.0
2024-03-08,07:00:00,DRY,5.53,-1.67,89.0,770.00,0.0
2024-03-08,07:05:00,DRY,5.65,-1.75,87.5,770.00,0.0
2024-03-08,07:10:00,DRY,5.47,-1.73,83.3,770.00,0.0
2024-03-08,07:15:00,DRY,5.60,-1.70,85.0,770.50,0.0
2024-03-08,07:20:00,DRY,4.83,-1.80,85.3,770.00,0.0
2024-03-08,07:25:00,DRY,6.70,-1.80,83.0,770.00,0.0
2024-03-08,07:30:00,DRY,5.70,-1.63,82.7,770.33,0.3
2024-03-08,07:35:00,DRY,5.45,-1.50,78.0,770.00,2.5
2024-03-08,07:40:00,DRY,6.90,-1.63,80.7,770.00,6.0
2024-03-08,07:45:00,DRY,6.10,-2.00,96.0,770.00,11.0
2024-03-08,07:50:00,DRY,6.83,-1.97,97.3,770.67,14.7
2024-03-08,07:55:00,DRY,5.30,-1.65,85.0,771.00,15.5
2024-03-08,08:00:00,DRY,6.43,-1.53,82.7,771.00,18.7
2024-03-08,08:05:00,DRY,5.50,-1.70,86.5,771.00,21.0
2024-03-08,08:10:00,DRY,7.23,-1.40,74.3,771.00,23.3
2024-03-08,08:15:00,DRY,4.70,-1.10,70.5,771.00,26.5
2024-03-08,08:20:00,DRY,6.30,-1.43,78.3,771.00,29.0
2024-03-08,08:25:00,DRY,5.10,-1.40,81.5,771.00,31.5
2024-03-08,08:30:00,DRY,4.80,-1.37,77.7,771.00,128.0
2024-03-08,08:35:00,DRY,6.90,-1.20,72.5,771.00,262.0
2024-03-08,08:40:00,DRY,5.70,-0.90,71.3,771.00,283.3
2024-03-08,08:45:00,DRY,4.35,-0.60,65.5,771.00,305.5
2024-03-08,08:50:00,DRY,5.83,-0.83,70.7,771.00,325.7
2024-03-08,08:55:00,DRY,4.00,-1.00,74.5,771.00,345.5
2024-03-08,09:00:00,DRY,5.20,-1.10,75.7,771.00,366.3
2024-03-08,09:05:00,DRY,5.55,-0.95,72.5,771.00,387.5
2024-03-08,09:10:00,DRY,4.70,-1.13,76.3,771.00,409.3
2024-03-08,09:15:00,DRY,5.50,-1.10,78.5,771.00,430.5
2024-03-08,09:20:00,DRY,5.13,-0.93,76.0,771.00,451.3
2024-03-08,09:25:00,DRY,4.25,-0.75,71.5,771.00,471.5
2024-03-08,09:30:00,DRY,3.97,-0.63,75.7,771.00,492.0
2024-03-08,09:35:00,DRY,4.80,-0.40,67.0,771.00,513.5
2024-03-08,09:40:00,DRY,5.70,-0.27,68.7,771.00,534.0
2024-03-08,09:45:00,DRY,4.55,-0.15,69.5,771.00,553.0
2024-03-08,09:50:00,DRY,5.50,0.00,68.7,771.00,573.0
2024-03-08,09:55:00,DRY,5.20,0.15,64.0,771.50,593.0
2024-03-08,10:00:00,DRY,3.67,0.10,71.7,772.00,609.0
2024-03-08,10:05:00,DRY,4.35,-0.20,78.0,772.00,626.5
2024-03-08,10:10:00,DRY,3.60,-0.03,73.0,772.00,646.0
2024-03-08,10:15:00,DRY,3.80,0.20,70.5,772.00,664.0
2024-03-08,10:20:00,DRY,4.47,0.27,71.3,772.00,681.0
2024-03-08,10:25:00,DRY,4.20,0.40,64.0,772.00,697.5
2024-03-08,10:30:00,DRY,4.50,0.57,62.3,772.00,713.0
2024-03-08,10:35:00,DRY,4.00,0.80,63.0,772.00,730.0
2024-03-08,10:40:00,DRY,4.33,0.90,61.3,772.00,745.0
2024-03-08,10:45:00,DRY,4.05,0.90,64.0,772.00,760.5
2024-03-08,10:50:00,DRY,4.10,0.80,65.3,772.00,774.7
2024-03-08,10:55:00,DRY,3.95,1.00,62.5,772.00,788.5
2024-03-08,11:00:00,DRY,4.07,1.13,61.3,772.00,797.7
2024-03-08,11:05:00,DRY,3.70,1.10,61.5,772.00,798.0
2024-03-08,11:10:00,DRY,3.40,1.33,59.3,772.00,798.0
2024-03-08,11:15:00,DRY,3.65,1.50,61.5,772.00,798.0
2024-03-08,11:20:00,DRY,4.27,1.97,54.3,772.00,798.0
2024-03-08,11:25:00,DRY,2.95,2.40,45.0,772.00,798.0
2024-03-08,11:30:00,DRY,3.07,2.20,56.7,772.00,798.0
2024-03-08,11:35:00,DRY,3.05,2.30,53.0,772.00,798.0
2024-03-08,11:40:00,DRY,3.13,2.27,57.3,772.00,798.0
2024-03-08,11:45:00,DRY,3.45,2.15,60.0,772.00,798.0
2024-03-08,11:50:00,DRY,3.67,2.43,62.0,772.00,798.0
2024-03-08,11:55:00,DRY,3.25,2.45,65.5,772.00,798.0
2024-03-08,12:00:00,DRY,2.60,2.63,69.3,772.00,798.0
2024-03-08,12:05:00,DRY,2.75,2.75,64.5,772.00,798.0
2024-03-08,12:10:00,DRY,2.60,2.83,52.3,772.00,798.0
2024-03-08,12:15:00,DRY,3.25,3.05,52.5,772.00,798.0
2024-03-08,12:20:00,DRY,2.53,3.00,51.3,772.00,798.0
2024-03-08,12:25:00,DRY,2.20,3.05,58.5,772.00,798.0
2024-03-08,12:30:00,DRY,2.20,3.20,56.7,772.00,798.0
2024-03-08,12:35:00,DRY,2.45,3.40,54.5,772.00,798.0
2024-03-08,12:40:00,DRY,2.63,4.10,46.0,772.00,798.0
2024-03-08,12:45:00,DRY,2.25,4.15,36.5,772.00,798.0
2024-03-08,12:50:00,DRY,2.37,4.13,47.7,772.00,798.0
2024-03-08,12:55:00,DRY,1.85,3.90,62.0,772.00,798.0
2024-03-08,13:00:00,DRY,2.37,3.47,61.0,772.00,798.0
2024-03-08,13:05:00,DRY,2.90,3.40,54.0,772.00,798.0
2024-03-08,13:10:00,DRY,2.50,3.57,74.0,771.67,798.0
2024-03-08,13:15:00,DRY,2.30,3.95,64.5,772.00,798.0
2024-03-08,13:20:00,DRY,1.93,3.30,62.7,772.00,798.0
2024-03-08,13:25:00,DRY,2.30,3.10,63.0,771.50,798.0
2024-03-08,13:30:00,DRY,2.20,3.30,70.0,771.50,798.0
2024-03-08,13:35:00,DRY,1.90,3.60,74.0,771.00,798.0
2024-03-08,13:40:00,DRY,1.33,3.57,64.7,771.00,798.0
2024-03-08,13:45:00,DRY,0.85,3.70,57.5,771.00,798.0
2024-03-08,13:50:00,DRY,2.60,4.33,63.0,771.00,798.0
2024-03-08,13:55:00,DRY,2.95,4.85,60.0,771.00,798.0
2024-03-08,14:00:00,DRY,2.83,4.40,58.0,771.00,798.0
2024-03-08,14:05:00,DRY,3.60,4.25,59.5,771.00,798.0
2024-03-08,14:10:00,DRY,3.50,4.20,66.0,771.00,798.0
2024-03-08,14:15:00,DRY,3.90,4.15,58.5,771.00,798.0
2024-03-08,14:20:00,DRY,3.33,4.33,61.7,771.00,798.0
2024-03-08,14:25:00,DRY,3.40,4.35,64.5,771.00,798.0
2024-03-08,14:30:00,DRY,3.60,4.60,67.3,771.00,798.0
2024-03-08,14:35:00,DRY,4.30,4.75,63.5,771.00,798.0
2024-03-08,14:40:00,DRY,4.63,4.60,64.7,771.00,798.0
2024-03-08,14:45:00,DRY,3.60,4.55,64.0,771.00,798.0
2024-03-08,14:50:00,DRY,4.43,4.53,61.3,771.00,798.0
2024-03-08,14:55:00,DRY,2.35,4.70,62.0,771.00,798.0
2024-03-08,15:00:00,DRY,2.80,4.57,62.7,771.00,798.0
2024-03-08,15:05:00,DRY,4.75,4.95,62.5,771.00,798.0
2024-03-08,15:10:00,DRY,3.17,4.47,64.7,771.00,798.0
2024-03-08,15:15:00,DRY,3.35,4.65,64.5,771.00,798.0
2024-03-08,15:20:00,DRY,3.30,4.63,68.3,771.00,798.0
2024-03-08,15:25:00,DRY,4.25,4.45,63.5,771.00,798.0
2024-03-08,15:30:00,DRY,3.33,4.33,61.7,771.00,797.3
2024-03-08,15:35:00,DRY,3.45,4.50,63.5,771.00,789.5
2024-03-08,15:40:00,DRY,3.63,4.67,64.3,771.00,774.0
2024-03-08,15:45:00,DRY,4.00,4.50,64.0,771.00,760.5
2024-03-08,15:50:00,DRY,4.50,4.57,64.3,771.00,746.7
2024-03-08,15:55:00,DRY,3.65,4.25,67.0,771.00,732.0
2024-03-08,16:00:00,DRY,3.30,4.47,71.7,771.00,715.7
2024-03-08,16:05:00,DRY,2.80,4.65,63.0,771.00,700.5
2024-03-08,16:10:00,DRY,3.73,4.80,63.3,771.00,683.3
2024-03-08,16:15:00,DRY,3.70,4.25,77.0,771.00,614.5
2024-03-08,16:20:00,DRY,4.87,4.23,70.7,771.00,649.7
2024-03-08,16:25:00,DRY,4.45,4.35,65.5,771.00,631.5
2024-03-08,16:30:00,DRY,3.63,4.30,64.0,771.00,613.3
2024-03-08,16:35:00,DRY,4.70,4.40,63.5,771.00,595.5
2024-03-08,16:40:00,DRY,4.57,4.20,66.3,771.00,576.3
2024-03-08,16:45:00,DRY,4.90,4.15,65.5,771.00,558.0
2024-03-08,16:50:00,DRY,4.67,3.97,69.0,771.00,538.7
2024-03-08,16:55:00,DRY,5.50,3.90,68.0,770.50,520.0
2024-03-08,17:00:00,DRY,2.97,3.60,68.0,771.00,500.0
2024-03-08,17:05:00,DRY,4.40,3.55,71.0,771.00,479.5
2024-03-08,17:10:00,DRY,4.63,3.47,70.3,771.00,459.3
2024-03-08,17:15:00,DRY,4.30,3.50,70.5,771.00,439.0
2024-03-08,17:20:00,DRY,3.97,3.43,68.7,771.00,418.3
2024-03-08,17:25:00,DRY,3.80,3.50,69.0,771.00,402.0
2024-03-08,17:30:00,DRY,3.57,3.27,73.0,770.67,376.3
2024-03-08,17:35:00,DRY,3.40,3.35,73.5,771.00,355.0
2024-03-08,17:40:00,DRY,3.43,3.33,73.3,771.00,333.3
2024-03-08,17:45:00,DRY,3.80,3.25,72.5,771.00,312.5
2024-03-08,17:50:00,DRY,3.97,3.00,75.7,771.00,290.0
2024-03-08,17:55:00,DRY,4.65,2.90,75.5,771.00,269.0
2024-03-08,18:00:00,DRY,3.57,2.80,75.0,771.00,247.3
2024-03-08,18:05:00,DRY,4.70,2.65,79.5,771.00,226.0
2024-03-08,18:10:00,DRY,4.13,2.57,77.3,771.00,204.3
2024-03-08,18:15:00,DRY,3.70,2.35,82.5,771.00,183.5
2024-03-08,18:20:00,DRY,4.40,2.10,86.3,771.00,163.0
2024-03-08,18:25:00,DRY,4.10,2.05,86.5,771.00,143.5
2024-03-08,18:30:00,DRY,4.90,2.10,81.3,770.00,124.7
2024-03-08,18:35:00,DRY,5.30,2.10,81.5,770.00,106.0
2024-03-08,18:40:00,DRY,5.50,2.00,79.0,770.00,77.3
2024-03-08,18:45:00,DRY,5.00,1.85,77.0,770.00,19.5
2024-03-08,18:50:00,DRY,4.63,1.73,78.7,770.00,16.3
2024-03-08,18:55:00,DRY,3.95,1.75,75.5,770.00,14.5
2024-03-08,19:00:00,DRY,4.13,1.70,74.3,770.00,11.0
2024-03-08,19:05:00,DRY,4.55,1.70,75.5,770.50,7.5
2024-03-08,19:10:00,DRY,4.03,1.70,74.7,770.67,4.3
2024-03-08,19:15:00,DRY,6.25,1.50,76.0,771.00,0.5
2024-03-08,19:20:00,DRY,4.63,1.50,75.3,770.33,0.0
2024-03-08,19:25:00,DRY,6.25,1.25,79.0,770.00,0.0
2024-03-08,19:30:00,DRY,5.63,1.23,80.0,770.33,0.0
2024-03-08,19:35:00,DRY,5.40,1.50,75.5,770.00,0.0
2024-03-08,19:40:00,DRY,6.07,1.47,74.0,770.33,0.0
2024-03-08,19:45:00,DRY,5.45,1.45,74.5,771.00,0.0
2024-03-08,19:50:00,DRY,4.83,1.03,74.3,771.00,0.0
2024-03-08,19:55:00,DRY,5.45,0.80,77.0,771.00,0.0
2024-03-08,20:00:00,DRY,6.20,0.83,76.7,771.00,0.0
2024-03-08,20:05:00,DRY,6.65,0.85,78.5,770.50,0.0
2024-03-08,20:10:00,DRY,5.57,1.13,77.0,771.00,0.0
2024-03-08,20:15:00,DRY,5.75,1.15,78.0,770.50,0.0
2024-03-08,20:20:00,DRY,7.03,1.67,76.0,770.67,0.0
2024-03-08,20:25:00,DRY,6.35,2.05,74.0,771.00,0.0
2024-03-08,20:30:00,DRY,6.60,1.73,77.3,771.00,0.0
2024-03-08,20:35:00,DRY,6.70,1.80,77.5,771.00,0.0
2024-03-08,20:40:00,DRY,6.73,2.10,73.7,771.00,0.0
2024-03-08,20:45:00,DRY,8.15,2.40,71.5,771.00,0.0
2024-03-08,20:50:00,DRY,7.43,2.60,69.7,771.00,0.0
2024-03-08,20:55:00,DRY,7.90,2.65,65.5,771.00,0.0
2024-03-08,21:00:00,DRY,7.53,2.30,72.0,771.00,0.0
2024-03-08,21:05:00,DRY,8.65,2.40,71.0,771.00,0.0
2024-03-08,21:10:00,DRY,8.50,2.53,70.7,771.00,0.0
2024-03-08,21:15:00,DRY,8.00,2.70,69.0,771.00,0.0
2024-03-08,21:20:00,DRY,7.30,2.90,68.0,771.00,0.0
2024-03-08,21:25:00,DRY,7.90,2.70,70.0,771.00,0.0
2024-03-08,21:30:00,DRY,7.77,2.47,69.0,771.00,0.0
2024-03-08,21:35:00,DRY,7.75,2.50,70.5,771.00,0.0
2024-03-08,21:40:00,DRY,8.47,2.53,65.0,771.00,0.0
2024-03-08,21:45:00,DRY,7.25,2.45,65.0,771.00,0.0
2024-03-08,21:50:00,DRY,7.27,2.17,68.7,771.00,0.0
2024-03-08,21:55:00,DRY,6.50,2.20,66.0,771.00,0.0
2024-03-08,22:00:00,DRY,7.57,2.40,64.7,771.00,0.0
2024-03-08,22:05:00,DRY,9.05,2.70,65.5,771.00,0.0
2024-03-08,22:10:00,DRY,8.63,2.73,66.0,771.00,0.0
2024-03-08,22:15:00,DRY,7.75,2.75,67.0,771.00,0.0
2024-03-08,22:20:00,DRY,8.33,2.57,68.0,771.00,0.0
2024-03-08,22:25:00,DRY,8.35,2.50,70.0,771.00,0.0
2024-03-08,22:30:00,DRY,7.07,2.83,67.7,771.67,0.0
2024-03-08,22:35:00,DRY,7.70,2.75,69.5,772.00,0.0
2024-03-08,22:40:00,DRY,8.23,2.73,69.3,772.00,0.0
2024-03-08,22:45:00,DRY,7.20,2.90,69.0,772.00,0.0
2024-03-08,22:50:00,DRY,7.23,2.87,69.0,772.00,0.0
2024-03-08,22:55:00,DRY,6.45,3.00,68.5,771.50,0.0
2024-03-08,23:00:00,DRY,8.93,3.00,68.0,772.00,0.0
2024-03-08,23:05:00,DRY,7.70,2.95,68.5,772.00,0.0
2024-03-08,23:10:00,DRY,7.77,3.00,67.3,772.00,0.0
2024-03-08,23:15:00,DRY,7.10,3.10,67.5,772.00,0.0
2024-03-08,23:20:00,DRY,7.67,3.03,68.7,772.00,0.0
2024-03-08,23:25:00,DRY,6.95,3.05,68.5,772.00,0.0
2024-03-08,23:30:00,DRY,7.10,2.73,70.3,772.00,0.0
2024-03-08,23:35:00,DRY,8.00,2.45,72.5,772.00,0.0
2024-03-08,23:40:00,DRY,7.87,2.63,70.7,772.00,0.0
2024-03-08,23:45:00,DRY,7.15,2.95,68.0,772.00,0.0
2024-03-08,23:50:00,DRY,7.47,3.13,67.3,772.00,0.0
2024-03-08,23:55:00,DRY,6.35,2.65,71.5,772.00,0.0
2024-03-09,00:00:00,DRY,6.70,2.67,70.0,772.00,0.0
2024-03-09,00:05:00,DRY,8.60,2.75,69.5,772.00,0.0
2024-03-09,00:10:00,DRY,6.93,2.70,69.7,772.00,0.0
2024-03-09,00:15:00,DRY,7.15,2.50,71.0,772.00,0.0
2024-03-09,00:20:00,DRY,7.10,2.53,70.3,771.67,0.0
2024-03-09,00:25:00,DRY,5.90,2.65,69.0,772.00,0.0
2024-03-09,00:30:00,DRY,6.80,2.70,66.7,772.00,0.0
2024-03-09,00:35:00,DRY,6.35,2.85,66.0,772.00,0.0
2024-03-09,00:40:00,DRY,7.03,3.03,64.0,771.67,0.0
2024-03-09,00:45:00,DRY,7.85,3.00,64.0,772.00,0.0
2024-03-09,00:50:00,DRY,8.80,3.37,61.3,771.33,0.0
2024-03-09,00:55:00,DRY,8.60,3.45,60.5,772.00,0.0
2024-03-09,01:00:00,DRY,8.73,3.20,62.3,771.00,0.0
2024-03-09,01:05:00,DRY,7.00,3.35,62.0,771.00,0.0
2024-03-09,01:10:00,DRY,8.83,3.43,61.0,771.00,0.0
2024-03-09,01:15:00,DRY,8.95,3.65,60.5,771.00,0.0
2024-03-09,01:20:00,DRY,8.60,3.73,61.0,771.00,0.0
2024-03-09,01:25:00,DRY,9.20,3.60,60.5,771.00,0.0
2024-03-09,01:30:00,DRY,9.57,3.60,60.0,771.00,0.0
2024-03-09,01:35:00,DRY,8.80,3.50,60.5,771.00,0.0
2024-03-09,01:40:00,DRY,9.03,3.43,60.7,771.00,0.0
2024-03-09,01:45:00,DRY,11.00,3.45,60.5,771.00,0.0
2024-03-09,01:50:00,DRY,9.27,3.37,61.0,771.00,0.0
2024-03-09,01:55:00,DRY,9.00,3.30,61.0,771.00,0.0
2024-03-09,02:00:00,DRY,9.50,3.30,63.0,771.00,0.0
2024-03-09,02:05:00,DRY,8.20,3.55,64.0,771.00,0.0
2024-03-09,02:10:00,DRY,7.70,3.30,64.0,771.00,0.0
2024-03-09,02:15:00,DRY,7.55,3.20,63.0,771.00,0.0
2024-03-09,02:20:00,DRY,9.97,3.20,62.0,771.00,0.0
2024-03-09,02:25:00,DRY,11.00,3.35,60.0,771.00,0.0
2024-03-09,02:30:00,DRY,10.30,3.43,60.3,770.67,0.0
2024-03-09,02:35:00,DRY,9.45,3.45,60.0,770.00,0.0
2024-03-09,02:40:00,DRY,11.15,3.35,61.0,770.50,0.0
2024-03-09,02:45:00,DRY,10.15,3.35,61.0,770.50,0.0
2024-03-09,02:50:00,DRY,8.90,3.33,60.7,770.33,0.0
2024-03-09,02:55:00,DRY,9.70,3.25,60.0,770.00,0.0
2024-03-09,03:00:00,DRY,10.40,3.53,57.7,770.00,0.0
2024-03-09,03:05:00,DRY,10.00,3.40,58.5,770.00,0.0
2024-03-09,03:10:00,DRY,9.83,3.33,58.0,770.00,0.0
2024-03-09,03:15:00,DRY,9.30,3.25,58.5,770.00,0.0
2024-03-09,03:20:00,DRY,10.17,3.30,57.7,770.00,0.0
2024-03-09,03:25:00,DRY,9.85,3.15,58.5,770.00,0.0
2024-03-09,03:30:00,DRY,11.57,3.20,49.7,770.00,0.0
2024-03-09,03:35:00,DRY,10.65,3.20,49.5,770.00,0.0
2024-03-09,03:40:00,DRY,9.57,3.43,47.7,770.00,0.0
2024-03-09,03:45:00,DRY,7.35,3.00,55.0,770.00,0.0
2024-03-09,03:50:00,DRY,9.67,3.03,52.7,770.00,0.0
2024-03-09,03:55:00,DRY,8.95,3.40,48.0,770.00,0.0
2024-03-09,04:00:00,DRY,10.27,3.20,49.0,770.00,0.0
2024-03-09,04:05:00,DRY,9.70,3.45,47.0,770.00,0.0
2024-03-09,04:10:00,DRY,9.57,3.27,46.7,770.00,0.0
2024-03-09,04:15:00,DRY,9.05,3.40,46.5,770.00,0.0
2024-03-09,04:20:00,DRY,8.80,2.83,52.7,770.00,0.0
2024-03-09,04:25:00,DRY,9.50,2.80,48.5,770.00,0.0
2024-03-09,04:30:00,DRY,7.87,2.43,54.3,770.00,0.0
2024-03-09,04:35:00,DRY,10.80,2.40,47.0,770.00,0.0
2024-03-09,04:40:00,DRY,9.50,2.83,42.0,770.00,0.0
2024-03-09,04:45:00,DRY,8.10,3.00,37.5,770.00,0.0
2024-03-09,04:50:00,DRY,8.93,3.37,41.3,770.00,0.0
2024-03-09,04:55:00,DRY,7.25,3.20,36.0,769.50,0.0
2024-03-09,05:00:00,DRY,8.93,3.37,37.0,769.67,0.0
2024-03-09,05:05:00,DRY,11.45,3.60,31.0,769.50,0.0
2024-03-09,05:10:00,DRY,8.47,3.17,37.0,770.00,0.0
2024-03-09,05:15:00,DRY,10.25,3.25,30.5,770.00,0.0
2024-03-09,05:20:00,DRY,9.40,3.13,29.0,769.67,0.0
2024-03-09,05:25:00,DRY,12.05,3.25,27.5,769.50,0.0
2024-03-09,05:30:00,DRY,11.93,3.60,28.0,769.33,0.0
2024-03-09,05:35:00,DRY,10.95,3.60,34.0,770.00,0.0
2024-03-09,05:40:00,DRY,10.17,3.13,30.3,770.00,0.0
2024-03-09,05:45:00,DRY,8.05,2.30,36.0,770.00,0.0
2024-03-09,05:50:00,DRY,9.70,2.03,46.0,769.67,0.0
2024-03-09,05:55:00,DRY,9.05,1.80,64.0,770.00,0.0
2024-03-09,06:00:00,DRY,9.03,1.40,71.7,770.00,0.0
2024-03-09,06:05:00,DRY,10.00,2.40,61.0,770.00,0.0
2024-03-09,06:10:00,DRY,10.70,3.13,55.7,770.00,0.0
2024-03-09,06:15:00,DRY,9.60,3.15,54.5,770.00,0.0
2024-03-09,06:20:00,DRY,11.23,3.53,50.7,770.00,0.0
2024-03-09,06:25:00,DRY,9.25,3.55,49.0,770.00,0.0
2024-03-09,06:30:00,DRY,10.57,3.87,43.3,770.00,0.0
2024-03-09,06:35:00,DRY,10.95,3.85,46.0,770.00,0.0
2024-03-09,06:40:00,DRY,8.97,3.80,43.0,770.00,0.0
2024-03-09,06:45:00,DRY,11.40,3.85,44.5,770.00,0.0
2024-03-09,06:50:00,DRY,7.43,3.77,47.3,770.00,0.0
2024-03-09,06:55:00,DRY,10.65,3.75,47.0,770.00,0.0
2024-03-09,07:00:00,DRY,8.50,3.83,51.0,770.00,0.0
2024-03-09,07:05:00,DRY,10.15,3.55,53.5,770.00,0.0
2024-03-09,07:10:00,DRY,9.33,3.87,51.7,770.00,0.0
2024-03-09,07:15:00,DRY,8.60,3.70,49.5,770.00,0.0
2024-03-09,07:20:00,DRY,9.53,3.73,49.3,770.00,0.0
2024-03-09,07:25:00,DRY,8.60,3.55,51.5,770.00,0.0
2024-03-09,07:30:00,DRY,5.75,3.35,51.0,770.00,2.5
2024-03-09,07:35:00,DRY,8.50,3.20,54.5,770.00,5.0
2024-03-09,07:40:00,DRY,8.13,3.47,43.7,770.00,9.3
2024-03-09,07:45:00,DRY,7.35,3.55,42.5,770.00,12.5
2024-03-09,07:50:00,DRY,7.90,3.63,34.0,770.00,16.3
2024-03-09,07:55:00,DRY,9.25,3.85,30.0,770.00,19.5
2024-03-09,08:00:00,DRY,8.23,3.70,29.7,770.00,21.7
2024-03-09,08:05:00,DRY,7.60,3.95,31.0,770.00,26.0
2024-03-09,08:10:00,DRY,8.53,4.03,36.7,770.00,29.3
2024-03-09,08:15:00,DRY,9.05,4.10,39.5,770.00,30.0
2024-03-09,08:20:00,DRY,9.70,4.00,41.0,770.00,32.3
2024-03-09,08:25:00,DRY,8.85,4.10,37.5,770.00,36.5
2024-03-09,08:30:00,DRY,9.33,4.17,39.7,770.33,186.3
2024-03-09,08:35:00,DRY,7.90,4.50,46.0,770.00,260.0
2024-03-09,08:40:00,DRY,8.23,4.47,49.3,770.67,280.3
2024-03-09,08:45:00,DRY,9.80,4.50,52.5,770.00,301.5
2024-03-09,08:50:00,DRY,7.13,4.90,49.3,770.33,323.7
2024-03-09,08:55:00,DRY,9.25,4.80,50.5,770.50,343.0
2024-03-09,09:00:00,DRY,7.80,4.87,49.0,770.67,365.3
2024-03-09,09:05:00,DRY,8.60,4.90,49.0,771.00,386.5
2024-03-09,09:10:00,DRY,7.97,4.87,51.3,771.00,407.7
2024-03-09,09:15:00,DRY,8.55,4.95,50.0,771.00,430.5
2024-03-09,09:20:00,DRY,7.97,4.97,50.7,771.00,451.0
2024-03-09,09:25:00,DRY,7.10,5.00,50.5,771.00,471.0
2024-03-09,09:30:00,DRY,7.50,5.17,49.7,771.00,491.7
2024-03-09,09:35:00,DRY,8.15,5.20,48.5,771.00,512.0
2024-03-09,09:40:00,DRY,7.60,5.35,47.5,771.00,537.0
2024-03-09,09:45:00,DRY,6.45,5.35,46.5,771.00,551.5
2024-03-09,09:50:00,DRY,8.27,5.47,47.3,771.00,572.0
2024-03-09,09:55:00,DRY,6.55,5.40,46.0,771.00,591.0
2024-03-09,10:00:00,DRY,7.50,5.50,45.7,771.00,609.7
2024-03-09,10:05:00,DRY,5.90,5.60,47.0,771.00,628.0
2024-03-09,10:10:00,DRY,7.23,5.40,48.7,771.00,645.0
2024-03-09,10:15:00,DRY,7.55,5.60,48.0,771.00,664.0
2024-03-09,10:20:00,DRY,7.47,5.73,47.0,771.00,680.7
2024-03-09,10:25:00,DRY,5.45,5.80,48.0,772.00,696.5
2024-03-09,10:30:00,DRY,6.90,5.80,47.3,772.00,713.7
2024-03-09,10:35:00,DRY,7.00,5.75,48.0,771.50,730.5
2024-03-09,10:40:00,DRY,6.67,5.90,47.3,772.00,746.7
2024-03-09,10:45:00,DRY,7.00,6.00,48.5,772.00,762.5
2024-03-09,10:50:00,DRY,7.70,6.20,46.3,772.00,779.0
2024-03-09,10:55:00,DRY,6.15,6.20,47.5,772.00,793.5
2024-03-09,11:00:00,DRY,6.07,6.27,47.3,772.00,798.0
2024-03-09,11:05:00,DRY,5.35,6.35,48.5,772.00,798.0
2024-03-09,11:10:00,DRY,7.33,6.27,46.7,772.00,798.0
2024-03-09,11:15:00,DRY,5.50,6.25,47.0,772.00,798.0
2024-03-09,11:20:00,DRY,6.27,6.63,46.7,772.00,798.0
2024-03-09,11:25:00,DRY,5.90,6.60,46.5,772.00,798.0
2024-03-09,11:30:00,DRY,5.00,6.80,47.0,772.00,798.0
2024-03-09,11:35:00,DRY,5.65,6.60,50.0,772.00,798.0
2024-03-09,11:40:00,DRY,4.10,6.67,50.0,772.00,798.0
2024-03-09,11:45:00,DRY,4.85,6.90,49.5,772.00,798.0
2024-03-09,11:50:00,DRY,4.40,7.20,50.3,772.00,798.0
2024-03-09,11:55:00,DRY,5.00,7.05,49.5,772.00,798.0
2024-03-09,12:00:00,DRY,4.80,7.07,47.7,772.00,798.0
2024-03-09,12:05:00,DRY,4.65,7.35,47.0,772.00,798.0
2024-03-09,12:10:00,DRY,4.97,7.00,48.7,772.00,798.0
2024-03-09,12:15:00,DRY,3.80,7.20,47.0,772.00,798.0
2024-03-09,12:20:00,DRY,4.20,6.90,49.3,772.00,798.0
2024-03-09,12:25:00,DRY,3.30,6.75,44.5,772.00,798.0
2024-03-09,12:30:00,DRY,3.85,6.70,54.0,772.00,798.0
2024-03-09,12:35:00,DRY,2.85,6.90,63.0,772.00,798.0
2024-03-09,12:40:00,DRY,3.83,6.77,65.0,772.00,798.0
2024-03-09,12:45:00,DRY,5.95,6.85,44.0,772.00,798.0
2024-03-09,12:50:00,DRY,6.07,7.23,30.7,772.00,798.0
2024-03-09,12:55:00,DRY,3.65,7.30,31.5,772.00,798.0
2024-03-09,13:00:00,DRY,5.60,7.27,33.0,772.00,798.0
2024-03-09,13:05:00,DRY,6.25,7.70,26.0,772.00,798.0
2024-03-09,13:10:00,DRY,6.03,7.60,24.0,772.00,798.0
2024-03-09,13:15:00,DRY,4.95,7.60,20.0,772.00,798.0
2024-03-09,13:20:00,DRY,6.60,7.67,20.3,772.00,798.0
2024-03-09,13:25:00,DRY,5.85,7.50,26.0,772.00,798.0
2024-03-09,13:30:00,DRY,4.75,7.90,36.0,772.00,798.0
2024-03-09,13:35:00,DRY,5.50,7.70,17.0,772.00,798.0
2024-03-09,13:40:00,DRY,5.30,7.53,15.7,772.00,798.0
2024-03-09,13:45:00,DRY,5.70,7.95,21.0,771.50,798.0
2024-03-09,13:50:00,DRY,5.70,8.13,16.7,772.00,798.0
2024-03-09,13:55:00,DRY,5.35,8.65,14.5,772.00,798.0
2024-03-09,14:00:00,DRY,6.50,8.60,15.0,771.67,798.0
2024-03-09,14:05:00,DRY,5.40,8.10,16.0,771.00,798.0
2024-03-09,14:10:00,DRY,5.35,8.25,17.0,771.00,798.0
2024-03-09,14:15:00,DRY,6.50,8.25,14.0,771.00,798.0
2024-03-09,14:20:00,DRY,5.03,8.33,15.3,771.33,798.0
2024-03-09,14:25:00,DRY,5.10,8.40,12.5,771.00,798.0
2024-03-09,14:30:00,DRY,5.40,8.10,14.7,771.00,798.0
2024-03-09,14:35:00,DRY,4.55,7.90,15.0,771.00,798.0
2024-03-09,14:40:00,DRY,5.85,8.15,23.5,771.00,798.0